Theta_e
310 313 319 317 322 320 321 321 321 322 322 323 323 322 320 322 321 322 322 323 322 323 323 323 325 344 360 359 360 359 358 358 356 357 356 355 352 352 353 352 351 350 352 351
310 311 314 316 319 322 321 321 322 322 322 323 324 322 322 322 322 323 323 323 324 324 323 325 330 347 361 360 358 358 357 356 359 357 357 355 355 353 352 350 351 351 349 350
312 312 311 316 317 321 323 322 323 324 323 322 323 322 323 322 323 322 324 324 325 324 324 326 338 348 360 355 354 354 356 356 356 358 356 353 353 350 349 348 349 348 348 349
314 313 310 313 317 319 323 322 322 324 325 325 323 323 325 324 323 323 324 324 325 324 326 329 339 346 360 358 355 354 355 356 354 355 355 353 353 350 349 348 346 349 349 348
317 316 314 311 313 317 321 321 322 323 325 326 324 323 326 325 325 324 324 324 325 325 325 327 341 347 354 356 356 354 354 353 353 354 354 351 350 349 347 347 348 345 343 341
314 313 314 311 311 313 319 321 322 323 326 329 325 323 324 326 326 326 325 324 325 325 325 330 338 347 354 356 355 354 352 353 353 350 352 350 348 347 347 348 347 343 339 336
314 312 312 315 316 313 315 321 326 326 329 332 326 324 326 327 326 326 325 324 325 325 325 332 338 343 356 354 353 352 352 351 350 349 350 350 348 347 347 344 344 341 334 331
316 313 312 315 317 318 315 320 329 327 333 331 328 327 327 326 328 326 325 324 325 325 325 328 339 343 349 348 348 348 348 347 347 348 347 347 346 343 336 336 333 331 328 326
317 316 310 313 315 318 315 318 324 325 325 325 327 327 330 330 328 326 325 325 325 326 328 330 338 341 346 345 347 345 342 341 342 341 337 334 334 332 329 328 326 324 324 321
320 322 312 313 316 317 318 319 325 328 327 327 325 330 333 335 333 328 328 332 334 338 341 341 343 341 340 339 339 338 337 335 335 334 332 330 328 326 325 323 322 321 320 320
317 323 313 315 318 321 319 321 324 326 326 329 328 330 335 337 336 338 339 337 336 336 337 341 340 339 337 336 336 335 334 332 330 328 326 325 324 323 322 321 320 320 318 317
320 323 323 314 318 319 320 321 325 330 330 326 331 337 333 338 338 337 336 338 338 339 339 338 337 336 334 333 332 330 329 327 326 324 323 322 322 321 320 319 318 317 316 316
320 323 324 321 318 319 324 322 322 327 329 328 331 341 336 337 335 333 333 335 336 335 334 334 333 332 330 328 327 325 324 323 323 322 321 321 320 318 317 317 316 316 316 316
317 320 326 319 317 320 324 322 320 327 330 329 331 341 337 335 334 334 333 333 333 333 331 329 328 327 326 324 323 322 321 321 320 319 319 318 317 316 316 315 315 316 316 316
320 324 322 322 320 321 320 322 322 323 325 331 336 337 335 334 333 332 330 328 328 328 327 326 324 323 321 320 319 318 317 317 316 316 315 315 315 314 314 314 315 316 316 316
319 326 325 324 324 322 320 321 323 322 323 328 335 335 330 328 327 327 327 326 326 325 323 322 321 320 318 317 315 315 314 314 313 313 313 313 313 314 313 314 315 315 315 315
316 325 326 325 322 324 323 324 324 322 327 332 338 332 327 327 326 325 324 324 324 322 321 320 319 317 316 315 314 313 312 312 312 311 312 312 312 312 313 314 313 313 314 313
319 326 325 326 323 326 323 323 323 329 333 333 330 327 325 325 325 324 323 322 321 319 318 317 315 314 313 312 311 311 311 311 311 311 311 310 311 311 312 312 312 313 314 314
321 326 331 331 330 326 326 325 329 330 334 330 328 325 323 323 322 321 319 318 317 316 315 314 312 312 311 311 311 311 311 310 310 309 309 310 310 309 309 310 311 310 313 313
324 322 331 329 334 333 322 318 320 326 330 325 325 324 323 320 321 317 313 313 313 312 312 311 310 310 310 310 311 310 309 309 308 308 309 309 309 308 308 309 310 310 311 311
320 321 329 329 327 323 315 312 316 331 328 323 323 321 321 319 317 313 312 310 308 308 308 308 307 307 308 309 308 308 307 307 307 308 308 307 308 308 308 308 309 309 310 310
315 316 316 326 327 325 308 319 331 324 321 320 320 320 316 314 313 311 309 308 305 305 304 305 304 304 305 307 306 305 305 305 305 306 305 305 306 306 307 307 307 308 309 309
314 311 310 308 308 304 306 315 325 323 320 318 315 316 315 313 311 309 307 306 305 305 305 304 303 303 302 302 302 302 302 303 304 303 303 302 303 304 305 306 306 305 305 306
305 304 309 309 303 303 304 307 313 316 315 313 312 312 310 309 306 304 303 304 305 304 304 303 302 302 301 300 300 300 300 301 302 301 300 300 302 302 303 303 302 300 299 302
301 303 306 304 303 305 301 302 305 310 311 313 311 309 307 306 304 303 303 303 302 300 300 301 301 301 300 299 298 298 297 298 299 299 298 298 299 299 299 298 298 297 295 295
300 302 305 302 300 300 299 301 301 302 304 307 307 307 306 304 304 303 302 301 300 299 299 299 299 299 299 298 297 297 296 296 296 296 296 295 297 297 297 298 297 296 296 294
Wind_Speed
24 17 21 30 30 27 26 25 28 25 26 23 25 24 23 17 20 21 20 17 18 16 14 19 18 21 30 29 34 28 27 29 29 25 21 18 18 16 12 10 11 11 10 8
20 22 28 28 30 31 30 29 25 25 26 27 24 24 22 23 17 19 20 19 18 16 16 15 19 18 31 21 20 20 19 22 23 21 22 20 18 17 14 9 12 12 9 7
20 28 29 30 31 30 30 28 25 24 27 24 20 19 22 23 22 16 18 19 20 18 17 15 15 16 22 29 23 11 21 23 20 18 20 14 16 14 13 13 12 8 7 6
14 25 29 29 28 31 28 29 26 26 18 17 23 15 19 21 22 17 16 17 17 18 16 15 17 14 23 24 33 34 25 21 21 20 19 21 18 17 16 14 12 10 8 7
10 19 28 31 30 29 27 29 28 28 17 21 21 14 18 21 21 22 17 14 18 17 14 14 17 18 22 21 25 27 22 22 19 21 19 18 14 15 17 16 17 15 14 10
25 23 19 25 30 30 25 27 30 25 18 15 19 16 19 22 27 21 19 18 16 19 19 17 17 18 18 23 24 21 20 21 19 16 13 13 15 20 23 19 17 15 14 10
16 24 23 20 19 30 30 22 16 15 13 10 22 20 13 23 22 22 20 18 16 17 19 17 19 16 26 23 22 23 22 16 16 13 14 13 15 17 21 17 15 18 17 10
10 16 26 17 19 17 31 23 8 22 12 18 21 20 20 12 19 23 21 17 15 16 15 15 18 13 26 25 21 22 19 21 20 20 19 20 20 18 18 19 19 17 15 8
9 14 20 21 18 23 30 23 23 15 18 15 18 16 13 5 17 22 22 18 17 14 18 14 16 17 24 28 25 25 27 25 22 22 23 24 24 23 21 19 16 15 12 10
6 7 19 21 15 20 23 23 21 14 21 16 21 18 12 14 12 20 20 17 15 18 20 17 17 24 28 34 32 27 26 24 23 23 21 23 24 20 17 17 16 13 10 8
2 6 16 17 12 18 15 14 17 18 14 12 10 17 18 20 17 18 18 15 14 17 18 19 19 26 28 30 23 25 24 23 22 22 22 22 20 18 17 16 12 10 8 6
5 4 10 22 15 17 18 18 23 11 20 4 5 8 22 25 22 19 16 15 17 17 20 19 18 25 27 24 22 21 22 22 21 21 21 20 19 16 15 12 10 7 7 7
5 3 5 11 18 19 10 22 19 22 12 13 5 1 8 22 18 18 20 19 16 16 17 17 17 15 23 23 22 21 21 21 21 20 19 18 16 14 12 10 8 8 7 8
1 3 11 10 13 10 20 19 26 22 10 2 4 8 12 17 19 18 20 20 20 17 18 17 16 15 21 22 21 20 20 20 20 19 17 16 14 12 10 9 9 8 8 9
8 8 14 13 16 18 18 22 19 23 21 7 12 15 15 15 17 20 17 20 21 19 19 18 16 15 20 20 19 19 18 18 17 16 15 14 12 11 10 9 9 8 9 11
4 4 11 10 7 9 16 19 18 24 16 11 21 14 16 16 13 16 19 20 18 18 18 18 17 16 19 18 18 16 16 15 15 15 13 11 10 10 9 8 8 10 10 11
3 5 3 6 13 12 5 20 17 14 16 13 18 15 19 17 16 17 18 18 19 18 18 17 16 17 17 17 16 15 15 14 14 14 12 10 9 10 9 10 11 8 9 8
4 4 2 1 4 1 7 22 15 11 14 20 24 17 16 17 16 17 17 19 19 19 18 16 17 17 16 16 16 15 14 15 14 14 11 10 9 9 11 12 10 8 7 9
9 4 3 4 4 1 14 15 2 4 12 26 28 24 20 21 16 14 17 18 18 18 16 20 19 17 15 15 15 16 16 15 14 13 11 10 10 9 10 9 8 7 9 11
6 10 4 8 4 3 5 16 16 12 6 15 27 24 23 20 15 11 18 19 18 22 21 20 18 16 16 15 16 17 16 14 13 11 10 11 10 8 7 8 7 7 7 9
7 5 4 6 5 4 14 23 20 1 7 9 21 22 20 16 13 18 19 18 22 18 17 18 17 18 16 15 17 17 15 14 11 10 10 9 8 5 7 8 7 7 6 7
7 6 4 3 5 4 21 15 5 11 18 12 15 11 24 21 20 19 18 17 18 17 16 16 17 18 17 15 16 16 15 12 11 11 11 12 9 12 8 6 5 4 5 5
6 7 3 7 4 7 12 11 13 15 21 14 14 17 22 21 19 18 16 15 15 17 17 17 17 19 17 17 15 15 13 11 10 11 11 10 10 10 12 10 9 12 12 10
11 15 4 2 5 11 18 20 18 17 19 18 17 18 20 20 18 18 14 10 14 17 16 17 17 16 18 16 16 15 13 11 11 12 12 10 9 14 11 12 16 17 13 12
5 10 5 3 5 6 18 17 15 20 18 19 19 19 19 18 18 15 15 12 19 17 17 16 16 15 16 15 15 15 14 12 12 13 12 12 11 10 12 13 13 10 13 14
7 5 4 3 5 6 7 10 14 20 17 17 20 18 18 19 16 16 11 18 18 17 15 15 14 14 15 15 14 14 14 14 13 12 12 12 11 10 9 8 5 7 8 9
Wind_Direction
224 243 224 218 229 229 218 221 222 222 221 223 214 225 216 227 214 199 205 213 212 217 206 208 201 178 176 181 169 170 159 156 167 173 172 186 197 204 203 189 210 194 179 204
226 226 247 217 228 227 234 221 219 219 217 215 217 216 219 224 237 203 196 201 206 207 207 197 187 168 174 148 151 157 169 170 164 168 181 182 186 194 197 194 147 160 178 192
240 221 228 237 215 223 228 233 226 218 220 202 210 208 222 223 218 216 198 193 199 198 203 192 165 157 166 148 166 183 193 174 174 175 182 180 182 175 174 178 170 161 172 181
237 254 221 235 232 217 220 226 235 241 204 212 189 209 206 222 207 199 190 191 185 191 200 185 157 165 160 156 159 176 175 169 175 185 174 172 161 166 173 164 158 138 141 111
219 252 234 214 227 234 221 213 227 237 240 221 191 215 206 213 207 186 185 194 184 181 181 194 153 166 173 165 154 166 169 175 178 174 163 171 168 157 144 141 135 131 120 106
260 239 262 210 215 235 234 212 217 230 241 214 191 195 232 189 210 186 184 184 188 175 182 177 154 157 143 132 144 150 160 165 167 165 165 159 153 145 139 138 142 138 119 109
250 240 234 250 264 211 230 233 197 205 223 185 212 192 231 204 195 188 184 177 192 171 177 164 160 157 137 137 147 152 158 159 153 145 151 147 145 148 141 145 150 134 121 109
229 216 221 213 239 228 214 222 210 193 171 206 219 222 223 267 209 182 171 176 176 162 161 138 133 122 125 137 133 133 125 106 117 113 110 114 109 112 97 107 102 102 105 102
222 251 193 200 216 214 211 215 201 217 191 205 186 194 86 70 160 167 154 175 167 157 121 121 122 133 109 101 105 108 104 107 106 108 99 96 104 97 93 89 97 97 106 108
325 270 193 191 204 250 234 194 200 231 188 213 191 151 147 135 103 137 132 111 99 92 98 98 98 84 86 92 100 105 107 105 100 96 93 89 92 98 100 103 98 93 86 79
324 283 190 180 190 219 208 228 204 220 225 209 181 170 154 141 126 100 97 100 113 117 123 101 96 97 95 96 109 112 113 111 106 103 104 103 102 99 96 92 91 89 82 67
221 307 256 186 199 219 202 221 203 202 224 312 355 150 152 137 139 137 131 115 105 103 105 112 114 113 108 118 116 116 115 110 109 109 106 102 100 98 94 91 83 75 63 53
354 259 235 235 190 207 188 221 197 229 233 215 148 120 311 109 121 135 142 128 126 127 129 124 116 118 116 112 112 116 118 117 115 113 106 100 97 93 87 79 69 60 48 44
235 264 262 209 198 192 194 255 204 213 230 252 16 154 113 124 138 148 131 141 146 133 117 115 112 111 115 116 116 113 113 113 108 105 101 96 92 88 79 70 61 51 44 42
187 238 233 240 223 210 182 222 215 207 219 171 154 142 139 139 138 131 122 114 117 113 109 110 110 107 107 105 101 99 96 98 101 98 96 97 94 82 70 63 58 51 47 42
323 282 218 203 138 243 194 218 236 234 200 202 157 140 136 133 129 122 120 121 116 115 112 109 108 108 108 106 103 99 98 95 92 90 85 80 80 76 64 63 64 58 46 48
284 301 250 180 148 194 248 224 215 203 108 166 159 138 135 135 135 129 125 122 123 121 116 114 106 101 101 103 104 100 98 92 87 83 77 71 69 65 59 60 60 46 50 51
238 254 75 207 118 104 159 215 215 76 85 118 116 131 135 134 126 128 124 122 116 110 105 102 104 105 101 100 95 96 92 89 84 73 62 59 56 57 60 59 55 40 31 41
206 295 133 118 140 199 65 11 354 98 109 139 132 134 137 132 133 102 108 105 105 104 100 101 102 100 95 94 94 93 85 78 71 65 55 52 56 59 61 55 42 38 27 32
149 253 304 151 108 130 7 333 340 89 78 136 134 139 139 128 109 104 93 90 89 98 106 107 102 95 83 76 81 80 73 68 62 59 60 57 54 62 60 50 42 40 25 47
1 351 87 95 92 66 343 324 270 216 144 146 134 127 130 116 109 109 103 95 98 99 96 101 95 87 79 81 82 75 69 61 50 54 58 55 46 15 73 53 39 37 20 50
12 334 16 327 81 37 346 328 47 126 122 121 120 107 114 117 112 109 107 111 117 119 107 97 92 82 69 75 80 73 62 54 50 54 49 41 28 28 46 41 43 33 13 50
27 354 27 31 53 309 329 359 75 125 115 110 103 118 118 117 115 112 110 109 106 112 108 99 93 85 78 70 70 67 49 49 52 56 50 38 26 27 36 41 13 50 35 21
358 13 53 195 352 17 17 26 34 89 106 114 126 118 113 112 113 108 106 114 111 94 87 90 88 85 76 69 66 60 49 47 51 52 47 36 35 39 42 42 46 54 36 16
352 311 352 84 0 317 22 30 40 65 77 96 96 100 105 116 116 118 117 113 90 85 82 82 80 80 80 71 62 54 48 46 52 53 45 30 32 32 38 46 60 78 62 54
348 331 350 51 12 63 21 38 53 68 66 80 97 101 107 110 107 97 96 93 93 91 90 85 79 73 75 71 62 55 51 50 52 50 43 32 28 39 35 33 64 69 54 52